{"data":{"norad_id":48042,"epoch":"2026-09-20T02:13:55.734816Z","epoch_age_seconds":53471,"freshness":"FRESH","line1":"1 48042U 21025A   26263.09300619  .00000351  00000+0  92593-3 0  9994","line2":"2 48042  87.8923 301.3415 0001935  92.8248 267.3103 13.13468527266056","mean_motion":13.13468527,"eccentricity":0.0001935,"inclination_deg":87.8923,"raan_deg":301.3415,"arg_perigee_deg":92.8248,"mean_anomaly_deg":267.3103,"bstar":0.00092593,"rev_number":26605,"period_min":109.63338446251,"perigee_km":1208.3028126971,"apogee_km":1211.2393331214,"semimajor_km":7587.9080729093,"source":"CELESTRAK","updated_at":"2026-09-20T09:00:44.583569Z"}}